Regional Weather Roundup
Issued by NWS Columbia, SC

Home | Current Version | Previous Version | Text Only | Print | Product List | Glossary On
Versions: 1 2 3 4 5 6 7 8 9 10 11 12 13 14 15 16 17 18 19 20 21 22 23 24 25 26 27 28 29 30 31 32 33 34 35 36 37 38 39 40 41 42 43 44 45 46 47 48 49 50
000
ASUS42 KCAE 300810
RWRCAE
REGIONAL WEATHER ROUNDUP
NATIONAL WEATHER SERVICE COLUMBIA SC
400 AM EDT SAT MAY 30 2015

NOTE: "FAIR" INDICATES FEW OR NO CLOUDS BELOW 12,000 FEET WITH NO
SIGNIFICANT WEATHER AND/OR OBSTRUCTIONS TO VISIBILITY.

NOT ALL STATIONS ARE QUALITY CONTROLLED BY THE NATIONAL
WEATHER SERVICE. USE DATA WITH CAUTION...ESPECIALLY
DEWPOINT OBSERVATIONS.

SCZ001>056-GAZ040-063>065-077-300900-
...UPSTATE SOUTH CAROLINA...

CITY           SKY/WX    TMP DP  RH WIND       PRES   REMARKS
ANDERSON       CLEAR     65  62  90 CALM      30.17S
LIBERTY        SUNNY    N/A N/A N/A CALM      30.18S
SPARTANBURG    CLEAR     64  64 100 CALM      30.17S
CLEMSON        CLEAR     69  63  81 CALM      30.18F
GREENVILLE     CLEAR     68  61  78 CALM      30.18F
GREENWOOD      CLEAR     63  62  97 CALM      30.18S
GREER          CLEAR     64  62  93 N3        30.17S
ROCK HILL      CLEAR     63  61  93 CALM      30.18F
CHESTER        SUNNY     68  64  88 CALM      30.19R
LAURENS        SUNNY     66  66 100 S3        30.17S


...CENTRAL SOUTH CAROLINA...

CITY           SKY/WX    TMP DP  RH WIND       PRES   REMARKS
COLUMBIA APT   PTCLDY    67  62  84 CALM      30.15S
COLUMBIA OWENS CLEAR     68  64  87 CALM      30.16F
DARLINGTON     CLEAR     66  61  82 E3        30.18S
FLORENCE       CLEAR     67  66  97 CALM      30.16S
MCENTIRE ANGB  CLEAR     64  63  97 E1        30.16S
ORANGEBURG     CLEAR     66  64  93 CALM      30.15F
SUMTER SHAW    CLEAR     67  65  94 NE3       30.14F
AIKEN          FAIR      64  61  88 CALM      30.19F
BARNWELL       FAIR      66  64  94 CALM      30.16S
MANNING        FAIR      63  59  88 CALM      30.15S
CAMDEN         FAIR      66  64  94 CALM      30.17S
LANCASTER      LGT RAIN  66  66 100 CALM      30.17F
WINNSBORO      SUNNY     64  63  94 CALM      30.17S


...EASTERN AND COASTAL SOUTH CAROLINA...

CITY           SKY/WX    TMP DP  RH WIND       PRES   REMARKS
MYRTLE BEACH   PTCLDY    73  64  73 SE9       30.17S
N MYRTLE BCH   PTCLDY    75  66  73 SE5       30.15S
CONWAY         FAIR      64  64 100 CALM      30.16S
MARION         FAIR      68  68 100 CALM      30.16S
HARTSVILLE     FAIR      64  64 100 CALM      30.16S
FLORENCE       CLEAR     67  66  97 CALM      30.16S
DARLINGTON     CLEAR     66  61  82 E3        30.18S
CHARLESTON APT PTCLDY    69  67  93 NE5       30.13S
MOUNT PLEASANT FAIR      68  66  94 CALM      30.13S FOG
WALTERBORO     SUNNY     63  63 100 CALM      30.15S
BEAUFORT       CLEAR     70  68  93 N5        30.13S


...EASTERN GEORGIA...

CITY           SKY/WX    TMP DP  RH WIND       PRES   REMARKS
AUGUSTA BUSH F FOG       64  64 100 CALM      30.14F VSB 1/2
AUGUSTA DANIEL CLEAR     71  65  81 SE3       30.16S
THOMSON        PTCLDY    67  67 100 CALM      30.20S
WASHINGTON     FAIR      66  66 100 CALM      30.16S
CLAXTON        FAIR      63  63 100 CALM      30.13S
SYLVANIA       SUNNY     67  67 100 CALM      30.14F
STATESBORO     CLEAR     65  32  29 CALM      30.13S
SAVANNAH       PTCLDY    67  66  97 N3        30.12S


...SOUTHERN NORTH CAROLINA...

CITY           SKY/WX    TMP DP  RH WIND       PRES   REMARKS
CHARLOTTE      CLOUDY    68  62  81 CALM      30.18F
MONROE         CLEAR     65  63  93 CALM      30.17S
WADESBORO      SUNNY     64  61  91 CALM      30.18S
ROCKINGHAM     SUNNY     68  65  89 CALM      30.17S
RUTHERFORDTON  CLOUDY    64  64 100 CALM      30.19S
ASHEVILLE      FOG       61  60  97 S3        30.23S VSB 1/2

$$



USA.gov is the U.S. government's official web portal to all federal, state and local government web resources and services.